www.pogodaiklimat.ru

Погода и климат >> Архив погоды >> Россия >> Якутия >> Усть-Чаркы


ПОГОДА в Усть-Чарках

  • Прогноз погоды в Усть-Чарках
  • Монитор погоды в Усть-Чарках
  • Климат города

АРХИВ ПОГОДЫ в Усть-Чарках

Время (UTC), дата Ветер
(напр.,м/с)
 
Видим.   Явления Облачность Т
(С)
Тd
(С)
f
(%)
Тe
(С)
Тes
(С)
Комфортность P
(гПа)
Po
(гПа)
Тmin
(С)
Tmax
(С)
R
(мм)
R24
(мм)
S
(см)
06 19.04 СВ 2 50 км ясно +1.2 -9.5 45 -1 +3 1017.1 983.2
09 19.04 СВ 1 50 км 6/1 1000 м
[Cu hum Ci fib]
+1.1 -9.6 45 0 +1 1016.6 982.6 +2.4
12 19.04 штиль 0 50 км 8/0
[Ac lent Ci fib]
-3.8 -12.5 51 -4 -4 1017.6 982.9
15 19.04 штиль 0 50 км 1/0
[Ac lent]
-13.7 -15.7 85 -14 -14 1019.1 983.1
18 19.04 штиль 0 50 км ясно -18.2 -18.8 95 -18 -18 1020.5 983.8
21 19.04 штиль 0 50 км ясно -18.3 -18.9 95 -18 -17 1020.7 984.0 -18.9 38
00 20.04 штиль 0 50 км 1/0
[Ci fib]
-5.1 -10.5 66 -6 +1 1018.2 983.4
03 20.04 СВ 2 50 км 1/1 1000 м
[Cu hum]
+1.6 -9.3 44 -1 +6 1016.3 982.4
06 20.04 СВ 2 50 км 4/4 600 м
[Cb cap]
+2.2 -8.8 44 -0 +3 1015.3 981.5
09 20.04 СВ 1 50 км 1/1 1000 м
[Sc diur, vesp]
+2.7 -8.4 44 +2 +3 1014.6 980.8 +3.1
12 20.04 В 1 50 км 3/0
[Ci fib]
-6.1 -13.0 58 -8 -8 1016.1 981.2
15 20.04 штиль 0 50 км 3/0
[Ci fib]
-11.8 -13.8 85 -12 -12 1017.1 982.4
18 20.04 штиль 0 50 км 10/0
[Ac As]
-10.5 -11.8 90 -11 -11 1016.8 981.3
21 20.04 штиль 0 50 км 1/0
[Ac lent]
-14.4 -14.4 100 -14 -13 1017.4 981.4 -14.4 37
00 21.04 штиль 0 50 км 3/0
[Ac lent Ci fib]
-2.4 -9.2 60 -3 +3 1015.4 981.0 -14.6
03 21.04 ЮВ 3 50 км 10/4 1000 м
[Sc Ac lent Ci fib]
+3.7 -7.7 43 +1 +3 1013.7 980.2
06 21.04 ЮВ 3 50 км 8/3 1000 м
[Sc Ac lent Ci fib]
+4.8 -7.7 40 +2 +4 1013.4 980.0
09 21.04 ЮВ 2 50 км 10/0
[Ac lent Ci fib]
+4.4 -7.9 40 +3 +3 1013.4 980.0 +5.6
12 21.04 штиль 0 50 км 10/0
[Ac lent Ci fib]
-1.2 -10.8 48 -2 -2 1016.0 981.7
15 21.04 З 1 50 км 3/0
[Ci fib]
-3.6 -11.1 56 -5 -5 1016.6 982.1
18 21.04 штиль 0 50 км 10/0
[Cs]
-7.1 -10.5 77 -8 -8 1018.4 983.3
21 21.04 штиль 0 50 км 1/0
[Ac trans]
-9.2 -10.3 92 -10 -8 1019.3 983.9 -11.1 37
00 22.04 В 1 50 км ясно -0.7 -8.6 55 -2 +4 1019.0 984.7
03 22.04 ЮВ 2 50 км 3/0
[Ci fib]
+6.4 -7.2 37 +5 +12 1018.3 984.9
06 22.04 ЮВ 2 50 км 1/0
[Ci fib]
+7.8 -6.5 36 +7 +12 1018.5 985.2
09 22.04 ЮВ 2 50 км ясно +7.9 -6.8 35 +7 +8 1019.1 985.8 +8.1
12 22.04 штиль 0 50 км ясно -1.3 -8.1 60 -2 -2 1021.4 986.9
15 22.04 штиль 0 50 км ясно -7.7 -9.5 87 -8 -8 1023.3 988.0
18 22.04 штиль 0 50 км ясно -11.5 -12.8 90 -12 -12 1025.2 989.4
21 22.04 штиль 0 50 км ясно -9.4 -9.7 98 -10 -8 1026.3 990.6 -13.0 34
00 23.04 В 1 50 км ясно +0.8 -7.3 55 -0 +6 1025.2 990.9
03 23.04 штиль 0 50 км ясно +6.1 -7.8 36 +6 +17 опасность
простуды
1024.1 990.7
06 23.04 ЮВ 1 50 км ясно +8.4 -6.3 35 +8 +15 1023.6 990.3
09 23.04 штиль 0 50 км ясно +8.0 -6.6 35 +8 +9 1023.5 990.0 +9.5
12 23.04 штиль 0 50 км ясно -1.5 -8.3 60 -2 -2 1024.9 990.3
18 23.04 штиль 0 50 км 3/0
[Ci fib]
-13.6 -13.6 100 -14 -14 1027.2 991.0
21 23.04 штиль 0 50 км 4/0
[Ci fib]
-9.9 -10.5 95 -10 -9 1027.2 991.4 -13.8 32
00 24.04 В 1 50 км 4/0
[Ci fib]
+0.3 -6.7 59 -1 +5 1025.2 990.9
03 24.04 В 1 50 км 3/0
[Ci fib]
+7.1 -5.1 42 +7 +16 опасность
простуды
1022.4 989.0
06 24.04 В 2 50 км 10/0
[Ci sp]
+8.5 -6.6 34 +7 +12 1020.7 987.5
09 24.04 В 1 50 км 10/0
[Ci sp]
+8.1 -4.7 40 +8 +9 1019.4 986.3 +9.9
12 24.04 штиль 0 50 км 10/0
[Ci fib]
-1.0 -5.6 71 -2 -2 1020.0 985.6
15 24.04 штиль 0 50 км 8/1 1000 м
[Sc Ac trans Ci fib]
-5.1 -6.8 88 -6 -6 1019.7 984.8
18 24.04 штиль 0 50 км 8/3 1000 м
[Sc Ac lent Ci fib]
-7.3 -7.5 98 -8 -8 1019.5 984.3
21 24.04 штиль 0 50 км 8/6 1000 м
[Sc Ac trans Ci fib]
-5.8 -6.5 95 -7 -6 1018.6 983.7 -7.9 28
00 25.04 В 1 50 км 6/6 1000 м
[Sc]
+4.9 -3.0 57 +4 +7 1016.8 983.3
03 25.04 ЮЗ 1 50 км 9/9 1000 м
[Sc]
+5.6 -3.1 53 +5 +6 1016.3 982.9
06 25.04 СЗ 1 50 км 9/9 600 м
[Cb cap]
+5.0 -3.3 55 +4 +5 1016.5 983.1
09 25.04 СЗ 2 50 км 9/9 600 м
[Cb cap]
+4.3 -2.8 60 +2 +2 1016.6 983.1 +7.3
12 25.04 З 1 50 км {ливн. осадки} 10/10 600 м
[Cb cap]
+2.8 -2.0 71 +2 +2 1016.6 982.8
15 25.04 штиль 0 50 км {ливн. осадки} 9/9 600 м
[Cb cap]
+1.4 -0.5 87 0 0 1016.3 982.4
18 25.04 штиль 0 50 км {ливн. осадки} 10/10 600 м
[Cb cap]
+1.0 -0.4 90 -0 -0 1015.5 981.6
21 25.04 штиль 0 50 км 10/10 600 м
[Cb cap]
+0.9 +0.1 94 -0 -0 1014.1 980.3 -0.6 0.0 27
00 26.04 штиль 0 50 км {ливн. осадки} 9/9 600 м
[Cb cap]
+1.9 +0.3 89 +1 +2 1013.1 979.4
03 26.04 штиль 0 50 км в посл. час ливневой снег {метель} 9/9 600 м
[Cb cap]
+2.1 +1.3 94 +1 +2 1012.1 978.4

 

Местоположение метеостанции Усть-Чаркы (Якутия, Россия): широта 66.80 долгота 136.60 высота над уровнем моря 274 м.

В архиве по умолчанию представлена погода в Усть-Чарках за последнюю неделю. Архивные данные за месяц целиком и за предыдущие месяцы, начиная с января 2011 года, Вы можете получить, выбрав интересующий диапазон дат из раскрывающегося списка и нажав кнопку "Ввод!".

Внимание! Время в таблицах - всемирное. Для получения местного времени необходимо прибавить поправку, которая в Усть-Чарках равна 10 ч.

Смотрите также архив погоды в соседних городах и на ближайших метеорологических станциях:

Погода в Батагае (Якутия, Россия) (128 км)
Погода в Верхоянске (Якутия, Россия) (162 км)
Погода в Иэме (Якутия, Россия) (171 км)
Погода в Екюччю (Якутия, Россия) (219 км)
Погода в Батагай-Алыте (Якутия, Россия) (288 км)
Погода в Усть-Моме (Якутия, Россия) (294 км)
Погода в Депутатском (Якутия, Россия) (316 км)
Погода в Томпо (Якутия, Россия) (319 км)
Погода в Себян-Кюеле (Якутия, Россия) (341 км)
Погода в Усть-Куйге (Якутия, Россия) (358 км)

Пояснения к столбцам:

Ветер - указаны скорость ветра в м/с - средняя за 10 мин, порывы в срок и между сроками (в фигурных скобках) и направление, откуда дует ветер: С - северный, СВ - северо-восточный, В - восточный, ЮВ - юго-восточный, Ю - южный, ЮЗ - юго-западный, З - западный, СЗ - северо-западный.
Видимость - горизонтальная дальность видимости в метрах или километрах. При видимости от 1 до 10 км при отсутствии осадков обычно наблюдается дымка, при ухудшении видимости до 1 км и менее - туман. В сухую погоду видимость может ухудшаться дымом, пылью или мглою.
Явления - указаны атмосферные явления, наблюдавшиеся в срок или в последний час перед сроком; фигурными скобками обозначены явления, наблюдавшиеся между сроками (за 1-3 часа до срока); квадратными скобками обозначены град или гололедные отложения с указанием их диаметра в мм.
Облачность - указаны через наклонную черту общая и нижняя облачность в баллах и высота нижней границы облаков в метрах; квадратными скобками обозначены формы облаков: Ci - перистые, Cs - перисто-слоистые, Cc - перисто-кучевые, Ac - высококучевые, As - высокослоистые, Sc - слоисто-кучевые, Ns - слоисто-дождевые, Cu - кучевые, Cb - кучево-дождевые. Подробнее классификацию облаков см. в Атласе облаков (PDF).
T - Температура воздуха - температура, измеренная на высоте 2 м над землей.
Td - Температура точки росы - температура, при понижении до которой содержащийся в воздухе водяной пар достигнет насыщения.
f - Относительная влажность воздуха - влажноcть воздуха, измеренная на высоте 2 м над землей.
Te - Эффективная температура - температура, которую ощущает одетый по сезону человек в тени. Характеристика душности погоды. При расчете учитывается влияние влажности воздуха и скорости ветра на теплоощущения человека.
Tes - Эффективная температура на солнце - температура, которую ощущает человек, с поправкой на солнечный нагрев. Характеристика знойности погоды. Зависит от высоты солнца над горизонтом, облачности и скорости ветра. Ночью, в пасмурную погоду, а также при ветре 12 м/с и более поправка равна нулю.
P - Атмосферное давление - приведенное к уровню моря атмосферное давление.
Po - Атмосферное давление - измеренное на уровне метеостанции атмосферное давление.
Tmin - Минимальная температура - минимум температуры воздуха на высоте 2 м над землей.
Tmax - Максимальная температура - максимум температуры воздуха на высоте 2 м над землей.
R - Количество осадков - Количество выпавших осадков за период времени, мм. При наведении курсора мыши на число - период времени, за который выпало указанное количество осадков.
R24 - Количество осадков - Количество выпавших осадков за 24 часа, мм.
S - Снежный покров - Высота снежного покрова, см. При наведении курсора мыши на число - состояние снежного покрова и степень покрытия местности в баллах.